GW5014 Weather Reports


Display with metric or nautical units.
time (UTC)temp
F
wind
direction
speed
MPH
gust
MPH
rain 1hr
in
rain 24hr
in
rain mn
in
humidity
%
barometer
mb
20260510061007 48 178 1.0 1.0 0.00 0.08 0.08 94 1006.2
20260510060503 48 208 0.0 0.0 0.00 0.08 0.08 94 1006.4
20260510055959 48 193 0.0 0.0 0.00 0.08 0.08 93 1006.2
20260510055455 48 197 0.0 0.0 0.05 0.08 0.08 93 1006.6
20260510054954 48 213 0.0 0.0 0.12 0.08 0.08 94 1006.3
20260510054449 48 210 0.0 0.0 0.12 0.07 0.07 94 1006.6
20260510053944 48 203 0.0 0.0 0.05 0.06 0.06 95 1006.6
20260510053439 48 199 0.0 0.0 0.07 0.05 0.05 95 1006.7
20260510052936 48 213 0.0 0.0 0.07 0.05 0.05 95 1006.7
20260510052432 49 199 0.0 0.0 0.07 0.05 0.05 95 1006.3
20260510051928 49 189 0.0 0.0 0.05 0.04 0.04 95 1006.6
20260510051425 49 207 0.0 0.0 0.12 0.04 0.04 93 1006.6
20260510050921 49 197 0.0 0.0 0.19 0.03 0.03 92 1006.6
20260510050418 50 211 0.0 0.0 0.12 0.02 0.02 89 1006.6
20260510045915 51 209 0.0 0.0 0.07 0.01 0.01 86 1006.6
20260510045412 51 231 0.0 1.0 0.00 0.00 0.00 82 1006.4
20260510044909 51 205 0.0 0.0 0.00 0.00 0.00 80 1006.3
20260510044406 51 216 0.0 0.0 0.00 0.00 0.00 80 1006.0
20260510043902 51 200 0.0 0.0 0.00 0.00 0.00 80 1006.1
20260510043358 51 249 1.0 1.0 0.00 0.00 0.00 80 1006.0
20260510042857 51 196 2.0 2.0 0.00 0.00 0.00 80 1006.1
20260510042352 51 168 0.0 1.0 0.00 0.00 0.00 81 1006.0
20260510041849 51 218 3.0 6.0 0.00 0.00 0.00 80 1006.1
20260510041346 50 194 0.0 1.0 0.00 0.00 0.00 81 1006.2
20260510040843 50 234 1.0 1.0 0.00 0.00 0.00 82 1005.9
20260510040340 49 196 0.0 1.0 0.00 0.00 0.00 83 1005.8
20260510035835 48 205 0.0 0.0 0.00 0.00 0.00 86 1005.5
20260510035331 49 191 0.0 0.0 0.00 0.00 0.00 84 1005.4
20260510034827 48 197 0.0 0.0 0.00 0.00 0.00 85 1005.5
20260510034325 47 208 0.0 0.0 0.00 0.00 0.00 87 1005.4
20260510033821 47 207 0.0 0.0 0.00 0.00 0.00 88 1005.4
20260510033319 47 216 0.0 0.0 0.00 0.00 0.00 88 1005.4
20260510032815 48 203 0.0 0.0 0.00 0.00 0.00 87 1005.1
20260510032312 48 200 0.0 0.0 0.00 0.00 0.00 86 1005.3
20260510031807 48 206 0.0 0.0 0.00 0.00 0.00 85 1005.3
20260510031303 48 205 0.0 0.0 0.00 0.00 0.00 84 1005.2
20260510030803 49 209 0.0 0.0 0.00 0.00 0.00 84 1005.4
20260510030300 49 200 0.0 0.0 0.00 0.00 0.00 84 1005.5
20260510025757 49 169 3.0 4.0 0.00 0.00 0.00 84 1005.5
20260510025254 49 203 0.0 0.0 0.00 0.00 0.00 84 1005.6
20260510024751 49 196 1.0 1.0 0.00 0.00 0.00 83 1005.7
20260510024248 48 185 0.0 1.0 0.00 0.00 0.00 85 1005.7
20260510023743 48 183 0.0 0.0 0.00 0.00 0.00 84 1005.8
20260510023236 48 203 0.0 0.0 0.00 0.00 0.00 84 1005.6
20260510022732 48 195 0.0 0.0 0.00 0.00 0.00 84 1005.9
20260510022231 48 186 0.0 0.0 0.00 0.00 0.00 84 1005.9
20260510021726 48 201 0.0 0.0 0.00 0.00 0.00 84 1005.8
20260510021224 48 219 0.0 0.0 0.00 0.00 0.00 83 1006.0
20260510020719 49 180 0.0 0.0 0.00 0.00 0.00 82 1005.9
20260510020219 49 170 1.0 2.0 0.00 0.00 0.00 81 1006.0
20260510015715 49 220 0.0 0.0 0.00 0.00 0.00 81 1006.3
20260510015212 48 205 0.0 0.0 0.00 0.00 0.00 82 1006.1
20260510014707 48 217 0.0 0.0 0.00 0.00 0.00 84 1006.2
20260510014200 47 200 0.0 0.0 0.00 0.00 0.00 84 1006.0
20260510013659 47 189 0.0 0.0 0.00 0.00 0.00 86 1006.0
20260510013156 46 154 1.0 1.0 0.00 0.00 0.00 87 1005.9
20260510012655 47 168 0.0 1.0 0.00 0.00 0.00 87 1006.0
20260510012151 47 199 0.0 0.0 0.00 0.00 0.00 86 1005.7
20260510011646 47 204 0.0 0.0 0.00 0.00 0.00 86 1005.8
20260510011142 47 192 0.0 0.0 0.00 0.00 0.00 86 1005.6
20260510010638 47 139 1.0 2.0 0.00 0.00 0.00 87 1005.8
20260510010136 47 202 1.0 1.0 0.00 0.00 0.00 86 1005.5
20260510005631 46 195 0.0 0.0 0.00 0.00 0.00 87 1005.5
20260510005128 46 196 0.0 1.0 0.00 0.00 0.00 87 1005.7
20260510004627 47 217 0.0 0.0 0.00 0.00 0.00 86 1005.9
20260510004124 47 203 0.0 0.0 0.00 0.00 0.00 85 1005.9
20260510003621 47 195 0.0 0.0 0.00 0.00 0.00 85 1006.0
20260510003117 47 191 0.0 0.0 0.00 0.00 0.00 85 1005.7
20260510002612 48 203 0.0 0.0 0.00 0.00 0.00 84 1005.7
20260510002109 48 131 2.0 2.0 0.00 0.00 0.00 84 1005.8
20260510001606 48 201 0.0 0.0 0.00 0.00 0.00 83 1005.8
20260510001105 48 208 0.0 0.0 0.00 0.00 0.00 82 1006.0
20260510000605 48 231 0.0 0.0 0.00 0.00 0.00 82 1006.1
20260509235558 49 214 0.0 0.0 0.00 0.00 0.00 81 1006.1
20260509235055 49 205 0.0 0.0 0.00 0.00 0.00 81 1006.1
20260509234551 49 122 1.0 2.0 0.00 0.00 0.00 80 1006.2
20260509234049 49 166 1.0 2.0 0.00 0.00 0.00 80 1006.1
20260509233547 49 194 2.0 2.0 0.00 0.00 0.00 79 1005.8
20260509233044 50 165 3.0 3.0 0.00 0.00 0.00 78 1005.9
20260509232541 50 184 0.0 0.0 0.00 0.00 0.00 77 1005.8
20260509232037 50 185 1.0 3.0 0.00 0.00 0.00 77 1005.9
20260509231533 50 155 2.0 2.0 0.00 0.00 0.00 77 1005.7
20260509231031 50 175 2.0 3.0 0.00 0.00 0.00 77 1005.7
20260509230528 50 184 0.0 0.0 0.00 0.00 0.00 77 1006.0
20260509230025 50 202 1.0 2.0 0.00 0.00 0.00 78 1006.0
20260509225520 50 180 2.0 2.0 0.00 0.00 0.00 78 1005.9
20260509225016 50 217 0.0 1.0 0.00 0.00 0.00 77 1006.1
20260509224512 50 156 3.0 4.0 0.00 0.00 0.00 77 1006.0
20260509224009 50 135 2.0 2.0 0.00 0.00 0.00 77 1006.0
20260509223505 50 120 1.0 2.0 0.00 0.00 0.00 77 1006.1
20260509223003 50 157 0.0 0.0 0.00 0.00 0.00 76 1006.0
20260509222458 50 113 1.0 2.0 0.00 0.00 0.00 76 1005.6
20260509221955 50 187 2.0 2.0 0.00 0.00 0.00 76 1005.8
20260509221451 50 192 0.0 0.0 0.00 0.00 0.00 75 1005.8
20260509220947 50 142 1.0 2.0 0.00 0.00 0.00 76 1005.7
20260509220443 50 164 1.0 2.0 0.00 0.00 0.00 75 1005.8
20260509215939 51 87 4.0 7.0 0.00 0.00 0.00 74 1005.9
20260509215435 51 97 2.0 3.0 0.00 0.00 0.00 73 1005.8
20260509214932 51 211 1.0 2.0 0.00 0.00 0.00 72 1005.9
20260509214430 52 205 1.0 1.0 0.00 0.00 0.00 71 1006.1
20260509213926 52 216 0.0 0.0 0.00 0.00 0.00 71 1006.0
20260509213422 53 177 0.0 1.0 0.00 0.00 0.00 69 1006.2
20260509212920 53 220 2.0 3.0 0.00 0.00 0.00 69 1006.4
20260509212417 53 242 1.0 2.0 0.00 0.00 0.00 68 1006.1
20260509211913 53 118 3.0 3.0 0.00 0.00 0.00 68 1006.0
20260509211409 53 82 1.0 3.0 0.00 0.00 0.00 69 1006.1
20260509210905 53 121 5.0 6.0 0.00 0.00 0.00 68 1006.0
20260509210403 52 196 0.0 0.0 0.00 0.00 0.00 70 1005.8
20260509205858 52 157 3.0 3.0 0.00 0.00 0.00 70 1005.8
20260509205358 52 137 2.0 2.0 0.00 0.00 0.00 70 1006.0
20260509204855 51 165 3.0 3.0 0.00 0.00 0.00 70 1006.1
20260509204351 51 202 1.0 1.0 0.00 0.00 0.00 71 1006.2
20260509203847 51 180 2.0 3.0 0.00 0.00 0.00 70 1006.3
20260509203344 51 222 2.0 3.0 0.00 0.00 0.00 70 1006.3
20260509202841 51 164 1.0 2.0 0.00 0.00 0.00 70 1006.3
20260509202337 51 227 0.0 1.0 0.00 0.00 0.00 69 1006.6
20260509201837 52 180 6.0 8.0 0.00 0.00 0.00 68 1006.6
20260509201328 53 183 2.0 4.0 0.00 0.00 0.00 67 1006.7
20260509200824 52 162 1.0 2.0 0.00 0.00 0.00 67 1006.6
20260509200320 52 115 0.0 2.0 0.00 0.00 0.00 66 1006.7
20260509195816 53 207 2.0 4.0 0.00 0.00 0.00 65 1006.6
20260509195311 52 180 2.0 3.0 0.00 0.00 0.00 65 1006.6
20260509194810 53 225 1.0 1.0 0.00 0.00 0.00 64 1006.7
20260509194307 53 182 0.0 1.0 0.00 0.00 0.00 63 1006.8
20260509193804 54 207 4.0 7.0 0.00 0.00 0.00 61 1006.6
20260509193304 55 212 0.0 0.0 0.00 0.00 0.00 59 1006.6
20260509192800 56 227 0.0 1.0 0.00 0.00 0.00 58 1006.6
20260509192256 56 208 0.0 0.0 0.00 0.00 0.00 58 1006.7
20260509191751 55 212 3.0 3.0 0.00 0.00 0.00 57 1006.8
20260509191248 55 214 1.0 2.0 0.00 0.00 0.00 59 1006.6
20260509190743 56 132 4.0 6.0 0.00 0.00 0.00 57 1006.8
20260509190241 57 133 0.0 1.0 0.00 0.00 0.00 55 1006.7
20260509185738 56 218 2.0 3.0 0.00 0.00 0.00 56 1006.8
20260509185234 55 239 2.0 4.0 0.00 0.00 0.00 57 1006.9
20260509184732 55 198 1.0 2.0 0.00 0.00 0.00 58 1006.8
20260509184229 55 173 0.0 0.0 0.00 0.00 0.00 59 1007.2
20260509183725 55 87 4.0 6.0 0.00 0.00 0.00 59 1006.9
20260509183221 53 181 4.0 7.0 0.00 0.00 0.00 61 1007.1
20260509182716 54 167 7.0 8.0 0.00 0.00 0.00 60 1007.0
20260509182214 54 226 2.0 3.0 0.00 0.00 0.00 60 1007.2
20260509181712 55 193 3.0 4.0 0.00 0.00 0.00 59 1007.2
20260509181209 53 213 1.0 2.0 0.00 0.00 0.00 62 1007.1
20260509180706 53 192 1.0 2.0 0.00 0.00 0.00 62 1007.2
20260509180202 54 191 3.0 4.0 0.00 0.00 0.00 60 1007.4
20260509175659 54 181 1.0 1.0 0.00 0.00 0.00 60 1007.2
20260509175155 55 127 4.0 4.0 0.00 0.00 0.00 59 1007.3
20260509174651 56 306 1.0 2.0 0.00 0.00 0.00 57 1007.5
20260509174150 57 203 0.0 0.0 0.00 0.00 0.00 55 1007.5
20260509173647 56 194 0.0 0.0 0.00 0.00 0.00 56 1007.4
20260509173142 56 213 2.0 4.0 0.00 0.00 0.00 55 1007.5
20260509172639 55 215 0.0 1.0 0.00 0.00 0.00 56 1007.4
20260509172136 55 123 1.0 2.0 0.00 0.00 0.00 55 1007.5
20260509171631 55 141 1.0 2.0 0.00 0.00 0.00 55 1007.8
20260509171128 56 179 3.0 4.0 0.00 0.00 0.00 54 1007.8
20260509170624 55 219 0.0 1.0 0.00 0.00 0.00 54 1007.8
20260509170120 55 169 2.0 2.0 0.00 0.00 0.00 53 1007.8
20260509165619 56 174 1.0 1.0 0.00 0.00 0.00 51 1007.7
20260509165115 55 109 2.0 3.0 0.00 0.00 0.00 51 1008.0
20260509164611 55 140 2.0 3.0 0.00 0.00 0.00 50 1007.8
20260509164106 55 203 7.0 11.0 0.00 0.00 0.00 49 1008.0
20260509163605 55 188 6.0 9.0 0.00 0.00 0.00 48 1007.8
20260509163100 56 203 2.0 3.0 0.00 0.00 0.00 47 1007.9
20260509162557 56 102 2.0 2.0 0.00 0.00 0.00 46 1007.9
20260509162053 56 205 0.0 1.0 0.00 0.00 0.00 45 1008.2
20260509161545 55 196 3.0 3.0 0.00 0.00 0.00 45 1008.0
20260509161045 55 152 1.0 3.0 0.00 0.00 0.00 45 1008.0
20260509160541 55 189 1.0 3.0 0.00 0.00 0.00 43 1008.3
20260509160036 55 214 0.0 0.0 0.00 0.00 0.00 43 1008.4
20260509155533 55 210 0.0 0.0 0.00 0.00 0.00 43 1008.4
20260509155029 56 148 0.0 1.0 0.00 0.00 0.00 42 1008.4
20260509154525 55 167 1.0 1.0 0.00 0.00 0.00 42 1008.5
20260509154023 55 126 4.0 6.0 0.00 0.00 0.00 41 1008.3
20260509153520 56 235 2.0 4.0 0.00 0.00 0.00 40 1008.5
20260509153017 56 183 3.0 3.0 0.00 0.00 0.00 40 1008.8
20260509152512 58 202 0.0 0.0 0.00 0.00 0.00 38 1008.6
20260509152009 60 230 0.0 1.0 0.00 0.00 0.00 36 1008.8
20260509151505 58 210 0.0 0.0 0.00 0.00 0.00 36 1008.5
20260509151004 55 193 0.0 1.0 0.00 0.00 0.00 38 1009.1
20260509150500 55 168 2.0 2.0 0.00 0.00 0.00 38 1009.3
20260509145959 56 106 5.0 6.0 0.00 0.00 0.00 38 1009.0
20260509145454 54 225 0.0 0.0 0.00 0.00 0.00 39 1009.1
20260509144949 53 179 3.0 6.0 0.00 0.00 0.00 39 1009.2
20260509144447 54 123 2.0 3.0 0.00 0.00 0.00 39 1009.2
20260509143944 54 214 0.0 0.0 0.00 0.00 0.00 38 1009.2
20260509143441 54 111 1.0 4.0 0.00 0.00 0.00 39 1009.4
20260509142937 54 163 4.0 7.0 0.00 0.00 0.00 38 1009.0
20260509142434 54 105 3.0 4.0 0.00 0.00 0.00 37 1009.5
20260509141929 54 207 0.0 0.0 0.00 0.00 0.00 38 1009.4
20260509141426 53 171 2.0 3.0 0.00 0.00 0.00 38 1009.4
20260509140923 53 174 2.0 4.0 0.00 0.00 0.00 36 1009.5
20260509140420 54 128 2.0 2.0 0.00 0.00 0.00 37 1009.3
20260509135918 53 179 0.0 0.0 0.00 0.00 0.00 38 1009.4
20260509135415 53 191 1.0 2.0 0.00 0.00 0.00 37 1009.4
20260509134913 53 170 1.0 2.0 0.00 0.00 0.00 36 1009.4
20260509134410 53 214 0.0 0.0 0.00 0.00 0.00 36 1009.4
20260509133907 52 108 4.0 7.0 0.00 0.00 0.00 36 1009.3
20260509133403 52 174 1.0 2.0 0.00 0.00 0.00 36 1009.5
20260509132902 53 174 0.0 1.0 0.00 0.00 0.00 36 1009.5
20260509132359 53 205 0.0 0.0 0.00 0.00 0.00 35 1009.7
20260509131857 53 92 2.0 2.0 0.00 0.00 0.00 34 1009.8
20260509131354 52 199 0.0 1.0 0.00 0.00 0.00 36 1009.6
20260509130850 52 168 1.0 2.0 0.00 0.00 0.00 36 1009.6
20260509130345 54 134 2.0 4.0 0.00 0.00 0.00 35 1009.3
20260509125843 54 180 0.0 0.0 0.00 0.00 0.00 36 1009.5
20260509125339 53 184 3.0 4.0 0.00 0.00 0.00 35 1009.7
20260509124835 52 167 0.0 1.0 0.00 0.00 0.00 38 1009.6
20260509124332 52 198 1.0 2.0 0.00 0.00 0.00 37 1009.7
20260509123830 51 167 0.0 1.0 0.00 0.00 0.00 37 1009.6
20260509123327 51 145 0.0 1.0 0.00 0.00 0.00 38 1009.7
20260509122822 50 152 2.0 2.0 0.00 0.00 0.00 38 1009.5
20260509122320 50 100 3.0 3.0 0.00 0.00 0.00 39 1009.6
20260509121817 49 202 0.0 0.0 0.00 0.00 0.00 41 1009.7
20260509121314 48 176 2.0 2.0 0.00 0.00 0.00 41 1009.9
20260509120812 47 148 1.0 2.0 0.00 0.00 0.00 43 1009.8
20260509120310 46 127 2.0 3.0 0.00 0.00 0.00 44 1009.7
20260509115808 46 149 2.0 2.0 0.00 0.00 0.00 46 1009.7
20260509115307 46 171 1.0 2.0 0.00 0.00 0.00 48 1009.9
20260509114802 45 208 0.0 0.0 0.00 0.00 0.00 48 1009.7
20260509114301 44 177 2.0 2.0 0.00 0.00 0.00 50 1009.8
20260509113759 44 185 2.0 2.0 0.00 0.00 0.00 52 1009.9
20260509113256 43 152 2.0 3.0 0.00 0.00 0.00 54 1009.9
20260509112753 42 147 1.0 1.0 0.00 0.00 0.00 56 1009.7
20260509112250 41 193 1.0 2.0 0.00 0.00 0.00 59 1009.8
20260509111747 41 206 0.0 1.0 0.00 0.00 0.00 60 1009.8
20260509111244 39 184 1.0 1.0 0.00 0.00 0.00 62 1010.0
20260509110741 39 195 1.0 2.0 0.00 0.00 0.00 61 1009.9
20260509110238 38 195 0.0 1.0 0.00 0.00 0.00 64 1010.0
20260509105736 37 194 0.0 0.0 0.00 0.00 0.00 67 1009.8
20260509105233 36 182 1.0 1.0 0.00 0.00 0.00 68 1009.9
20260509104730 34 188 0.0 0.0 0.00 0.00 0.00 74 1009.8
20260509104227 33 205 0.0 0.0 0.00 0.00 0.00 79 1009.8
20260509103725 33 214 0.0 0.0 0.00 0.00 0.00 81 1010.0
20260509103222 33 214 0.0 0.0 0.00 0.00 0.00 79 1009.9
20260509102720 34 198 0.0 0.0 0.00 0.00 0.00 72 1010.0
20260509102217 34 196 0.0 0.0 0.00 0.00 0.00 72 1009.9
20260509101713 34 132 2.0 3.0 0.00 0.00 0.00 71 1009.9
20260509101209 34 199 0.0 0.0 0.00 0.00 0.00 72 1010.1
20260509100708 34 188 0.0 1.0 0.00 0.00 0.00 73 1010.0
20260509100204 33 125 2.0 3.0 0.00 0.00 0.00 73 1010.1
20260509095701 33 155 0.0 0.0 0.00 0.00 0.00 74 1009.9
20260509095158 32 179 1.0 1.0 0.00 0.00 0.00 75 1009.8
20260509094654 31 202 0.0 0.0 0.00 0.00 0.00 80 1009.9
20260509094151 31 201 0.0 0.0 0.00 0.00 0.00 82 1010.0
20260509093650 32 190 0.0 0.0 0.00 0.00 0.00 77 1010.0
20260509093147 33 204 0.0 1.0 0.00 0.00 0.00 73 1009.9
20260509092645 33 178 0.0 0.0 0.00 0.00 0.00 73 1009.9
20260509092143 33 138 2.0 3.0 0.00 0.00 0.00 73 1009.9
20260509091641 33 151 1.0 2.0 0.00 0.00 0.00 72 1009.7
20260509091136 32 184 1.0 2.0 0.00 0.00 0.00 76 1009.9
20260509090634 30 203 0.0 1.0 0.00 0.00 0.00 82 1009.8
20260509090132 30 201 0.0 0.0 0.00 0.00 0.00 83 1010.0
20260509085629 31 200 0.0 0.0 0.00 0.00 0.00 82 1010.1
20260509085124 32 200 0.0 0.0 0.00 0.00 0.00 78 1010.1
20260509084622 32 202 0.0 0.0 0.00 0.00 0.00 80 1010.0
20260509084119 32 166 0.0 1.0 0.00 0.00 0.00 81 1010.0
20260509083616 32 205 0.0 0.0 0.00 0.00 0.00 78 1010.1
20260509083113 32 205 0.0 0.0 0.00 0.00 0.00 77 1010.0
20260509082610 33 200 0.0 0.0 0.00 0.00 0.00 76 1010.1
20260509082107 32 192 0.0 0.0 0.00 0.00 0.00 78 1010.2
20260509081604 31 201 0.0 0.0 0.00 0.00 0.00 83 1010.1
20260509081101 31 203 0.0 0.0 0.00 0.00 0.00 84 1010.2
20260509080559 30 210 0.0 0.0 0.00 0.00 0.00 85 1010.2
20260509080057 31 202 0.0 0.0 0.00 0.00 0.00 84 1010.2
20260509075554 32 218 0.0 0.0 0.00 0.00 0.00 81 1010.0
20260509075052 32 215 0.0 0.0 0.00 0.00 0.00 76 1010.0
20260509074549 32 190 0.0 0.0 0.00 0.00 0.00 76 1010.1
20260509074045 32 202 0.0 0.0 0.00 0.00 0.00 78 1009.9
20260509073542 33 203 0.0 0.0 0.00 0.00 0.00 75 1009.8
20260509073038 32 196 0.0 0.0 0.00 0.00 0.00 74 1010.0
20260509072535 32 205 0.0 0.0 0.00 0.00 0.00 79 1009.9
20260509072032 31 197 0.0 0.0 0.00 0.00 0.00 79 1010.1
20260509071528 31 201 0.0 0.0 0.00 0.00 0.00 82 1009.9
20260509071026 31 207 0.0 0.0 0.00 0.00 0.00 81 1009.9
20260509070523 31 201 0.0 0.0 0.00 0.00 0.00 81 1010.0
20260509070019 31 191 0.0 0.0 0.00 0.00 0.00 84 1010.1
20260509065515 31 201 0.0 0.0 0.00 0.00 0.00 83 1010.2
20260509065011 32 191 0.0 0.0 0.00 0.00 0.00 79 1010.2
20260509064509 31 203 0.0 0.0 0.00 0.00 0.00 81 1010.3
20260509064007 31 198 0.0 0.0 0.00 0.00 0.00 82 1010.2
20260509063502 32 191 1.0 1.0 0.00 0.00 0.00 82 1010.2
20260509062959 30 203 0.0 1.0 0.00 0.00 0.00 85 1010.2
20260509062456 30 200 0.0 0.0 0.00 0.00 0.00 85 1010.2
20260509061954 31 193 1.0 2.0 0.00 0.00 0.00 83 1010.1
20260509061451 31 201 0.0 0.0 0.00 0.00 0.00 82 1010.2